FW2142 Weather Reports


time (UTC)temp
C
wind
direction
speed
KPH
gust
KPH
rain 1hr
cm
rain 24hr
cm
rain mn
cm
humidity
%
barometer
mb
20260510061008 20 187 0.0 4.8 0.00 0.00 0.00 86 1014.0
20260510060508 20 187 0.0 4.8 0.00 0.00 0.00 86 1014.0
20260510060009 20 187 1.6 6.4 0.00 0.00 0.00 86 1014.0
20260510055505 20 187 1.6 6.4 0.00 0.00 0.00 86 1013.9
20260510055003 20 186 3.2 6.4 0.00 0.00 0.00 85 1014.0
20260510054502 20 187 1.6 6.4 0.00 0.00 0.00 85 1014.1
20260510054100 20 188 3.2 6.4 0.00 0.00 0.00 85 1014.0
20260510053559 20 190 3.2 8.0 0.00 0.00 0.00 85 1013.9
20260510053109 20 190 3.2 8.0 0.00 0.00 0.00 84 1013.9
20260510052557 20 183 3.2 6.4 0.00 0.00 0.00 84 1013.7
20260510052056 20 182 3.2 6.4 0.00 0.00 0.00 84 1013.6
20260510051645 20 182 3.2 6.4 0.00 0.00 0.00 83 1013.5
20260510051058 20 182 3.2 6.4 0.00 0.00 0.00 83 1013.5
20260510050555 20 186 3.2 8.0 0.00 0.00 0.00 82 1013.4
20260510050057 21 186 3.2 8.0 0.00 0.00 0.00 82 1013.5
20260510045552 21 202 3.2 6.4 0.00 0.00 0.00 81 1013.4
20260510045052 21 173 3.2 6.4 0.00 0.00 0.00 81 1013.4
20260510044553 21 190 3.2 8.0 0.00 0.00 0.00 81 1013.3
20260510044053 21 182 3.2 8.0 0.00 0.00 0.00 80 1013.3
20260510043551 21 196 3.2 8.0 0.00 0.00 0.00 80 1013.4
20260510043134 21 171 3.2 8.0 0.00 0.00 0.00 79 1013.5
20260510042553 21 177 3.2 8.0 0.00 0.00 0.00 79 1013.5
20260510042052 21 181 3.2 9.7 0.00 0.00 0.00 78 1013.4
20260510041553 21 187 3.2 9.7 0.00 0.00 0.00 77 1013.4
20260510041052 21 192 3.2 8.0 0.00 0.00 0.00 75 1013.3
20260510040550 21 192 3.2 8.0 0.00 0.00 0.00 75 1013.3
20260510040050 21 193 3.2 8.0 0.00 0.00 0.00 73 1013.5
20260510035549 21 178 3.2 6.4 0.00 0.00 0.00 73 1013.4
20260510035053 21 169 3.2 8.0 0.00 0.00 0.00 71 1013.4
20260510034553 21 175 3.2 6.4 0.00 0.00 0.00 69 1013.4
20260510034048 21 149 1.6 4.8 0.00 0.00 0.00 68 1013.5
20260510033547 21 148 1.6 4.8 0.00 0.00 0.00 67 1013.5
20260510033050 21 148 0.0 3.2 0.00 0.00 0.00 67 1013.4
20260510032548 21 148 0.0 3.2 0.00 0.00 0.00 67 1013.3
20260510032049 21 148 0.0 3.2 0.00 0.00 0.00 66 1013.2
20260510031618 21 148 0.0 0.0 0.00 0.00 0.00 67 1013.0
20260510031045 21 148 0.0 0.0 0.00 0.00 0.00 67 1013.0
20260510030544 21 148 0.0 1.6 0.00 0.00 0.00 67 1013.0
20260510030043 21 149 0.0 1.6 0.00 0.00 0.00 67 1012.9
20260510025543 21 149 0.0 1.6 0.00 0.00 0.00 67 1012.8
20260510025043 21 149 0.0 1.6 0.00 0.00 0.00 68 1012.8
20260510024544 20 149 0.0 1.6 0.00 0.00 0.00 68 1012.8
20260510024041 20 149 0.0 0.0 0.00 0.00 0.00 69 1012.6
20260510023541 20 149 0.0 0.0 0.00 0.00 0.00 71 1012.6
20260510023051 20 149 0.0 0.0 0.00 0.00 0.00 73 1012.5
20260510022541 20 149 0.0 0.0 0.00 0.00 0.00 74 1012.5
20260510022041 20 149 0.0 0.0 0.00 0.00 0.00 74 1012.4
20260510021544 20 149 0.0 0.0 0.00 0.00 0.00 75 1012.3
20260510021041 21 149 0.0 0.0 0.00 0.00 0.00 76 1012.3
20260510020546 21 149 0.0 0.0 0.00 0.00 0.00 74 1012.3
20260510020043 21 149 0.0 0.0 0.00 0.00 0.00 73 1012.2
20260510015542 21 148 0.0 0.0 0.00 0.00 0.00 75 1012.2
20260510015040 21 149 0.0 0.0 0.00 0.00 0.00 74 1012.2
20260510014540 21 149 0.0 0.0 0.00 0.00 0.00 75 1012.2
20260510014040 21 149 0.0 0.0 0.00 0.00 0.00 74 1012.1
20260510013542 21 148 0.0 0.0 0.00 0.00 0.00 75 1012.2
20260510013042 21 148 0.0 0.0 0.00 0.00 0.00 74 1012.1
20260510012539 21 149 0.0 0.0 0.00 0.00 0.00 73 1012.1
20260510012039 22 148 0.0 0.0 0.00 0.00 0.00 72 1011.9
20260510011552 22 149 0.0 0.0 0.00 0.00 0.00 73 1012.0
20260510011038 22 149 0.0 0.0 0.00 0.00 0.00 71 1011.9
20260510010543 22 149 0.0 0.0 0.00 0.00 0.00 70 1011.9
20260510010047 22 149 0.0 0.0 0.00 0.00 0.00 70 1011.9
20260510005538 22 149 0.0 0.0 0.00 0.00 0.00 68 1011.8
20260510005037 23 149 0.0 0.0 0.00 0.00 0.00 69 1011.8
20260510004536 23 149 0.0 0.0 0.00 0.00 0.00 69 1011.6
20260510004041 23 149 0.0 0.0 0.00 0.00 0.00 68 1011.6
20260510003536 23 148 0.0 0.0 0.00 0.00 0.00 66 1011.5
20260510003036 24 148 0.0 0.0 0.00 0.00 0.00 65 1011.4
20260510002536 24 148 0.0 0.0 0.00 0.00 0.00 64 1011.4
20260510002036 25 148 0.0 0.0 0.00 0.00 0.00 63 1011.3
20260510001536 25 148 0.0 0.0 0.00 0.00 0.00 62 1011.3
20260510001035 25 149 0.0 0.0 0.00 0.00 0.00 61 1011.2
20260510000535 25 148 0.0 0.0 0.00 0.00 0.00 61 1011.2
20260510000034 25 148 0.0 0.0 0.00 0.00 0.00 61 1011.2
20260509235534 25 149 0.0 0.0 0.00 0.00 0.00 61 1011.1
20260509235035 26 149 0.0 0.0 0.00 0.00 0.00 60 1011.1
20260509234535 26 149 0.0 1.6 0.00 0.00 0.00 61 1011.1
20260509234033 26 148 0.0 1.6 0.00 0.00 0.00 61 1011.0
20260509233535 26 149 0.0 1.6 0.00 0.00 0.00 61 1010.9
20260509233033 26 149 0.0 0.0 0.00 0.00 0.00 59 1010.9
20260509232533 26 149 0.0 0.0 0.00 0.00 0.00 59 1010.9
20260509232032 26 149 0.0 1.6 0.00 0.00 0.00 60 1010.9
20260509231533 26 149 0.0 1.6 0.00 0.00 0.00 60 1010.9
20260509231032 26 148 0.0 0.0 0.00 0.00 0.00 59 1010.8
20260509230532 26 149 0.0 1.6 0.00 0.00 0.00 60 1010.9
20260509230032 26 148 0.0 1.6 0.00 0.00 0.00 60 1010.9
20260509225531 26 148 0.0 4.8 0.00 0.00 0.00 59 1010.8
20260509225032 26 149 0.0 0.0 0.00 0.00 0.00 59 1010.8
20260509224531 26 149 0.0 1.6 0.00 0.00 0.00 61 1010.8
20260509224031 26 149 0.0 1.6 0.00 0.00 0.00 60 1010.7
20260509223531 26 149 0.0 4.8 0.00 0.00 0.00 60 1010.7
20260509223030 26 149 0.0 4.8 0.00 0.00 0.00 60 1010.8
20260509222531 26 149 0.0 1.6 0.00 0.00 0.00 61 1010.7
20260509222035 26 149 0.0 1.6 0.00 0.00 0.00 64 1010.7
20260509221535 26 149 0.0 1.6 0.00 0.00 0.00 63 1010.7
20260509221030 25 149 0.0 3.2 0.00 0.00 0.00 66 1010.7
20260509220530 25 149 0.0 3.2 0.00 0.00 0.00 65 1010.7
20260509220030 25 149 0.0 0.0 0.00 0.00 0.00 67 1010.6
20260509215531 25 149 0.0 0.0 0.00 0.00 0.00 66 1010.6
20260509215029 25 149 0.0 0.0 0.00 0.00 0.00 63 1010.6
20260509214528 26 149 0.0 3.2 0.00 0.00 0.00 63 1010.6
20260509214029 26 149 0.0 3.2 0.00 0.00 0.00 64 1010.6
20260509213528 26 149 0.0 0.0 0.00 0.00 0.00 63 1010.6
20260509213028 26 149 0.0 1.6 0.00 0.00 0.00 61 1010.6
20260509212527 26 149 0.0 1.6 0.00 0.00 0.00 60 1010.6
20260509212028 27 149 0.0 1.6 0.00 0.00 0.00 58 1010.5
20260509211549 27 149 0.0 3.2 0.00 0.00 0.00 56 1010.6
20260509211028 27 149 0.0 3.2 0.00 0.00 0.00 55 1010.6
20260509210527 27 148 0.0 0.0 0.00 0.00 0.00 51 1010.7
20260509210027 27 148 0.0 4.8 0.00 0.00 0.00 51 1010.7
20260509205526 28 149 0.0 8.0 0.00 0.00 0.00 50 1010.7
20260509205026 28 149 0.0 6.4 0.00 0.00 0.00 52 1010.8
20260509204525 27 147 0.0 4.8 0.00 0.00 0.00 52 1010.8
20260509204026 27 147 0.0 3.2 0.00 0.00 0.00 51 1010.8
20260509203523 27 147 0.0 3.2 0.00 0.00 0.00 51 1010.8
20260509203037 27 147 0.0 3.2 0.00 0.00 0.00 50 1010.9
20260509202523 27 147 0.0 6.4 0.00 0.00 0.00 51 1011.0
20260509202024 27 126 0.0 6.4 0.00 0.00 0.00 50 1011.0
20260509201524 27 118 0.0 6.4 0.00 0.00 0.00 49 1011.2
20260509201023 27 304 0.0 1.6 0.00 0.00 0.00 51 1011.3
20260509200523 27 304 0.0 1.6 0.00 0.00 0.00 52 1011.4
20260509200023 27 304 0.0 3.2 0.00 0.00 0.00 53 1011.5
20260509195521 27 292 0.0 3.2 0.00 0.00 0.00 51 1011.6
20260509195020 27 293 0.0 4.8 0.00 0.00 0.00 53 1011.5
20260509194520 27 275 0.0 4.8 0.00 0.00 0.00 49 1011.5
20260509194019 27 275 1.6 4.8 0.00 0.00 0.00 48 1011.7
20260509193519 27 207 0.0 1.6 0.00 0.00 0.00 55 1011.7
20260509193018 27 207 0.0 3.2 0.00 0.00 0.00 54 1011.7
20260509192519 27 207 0.0 3.2 0.00 0.00 0.00 52 1011.7
20260509192021 27 207 0.0 1.6 0.00 0.00 0.00 54 1011.7
20260509191519 27 207 0.0 1.6 0.00 0.00 0.00 49 1011.7
20260509191020 27 207 0.0 3.2 0.00 0.00 0.00 55 1011.7
20260509190517 27 204 0.0 1.6 0.00 0.00 0.00 55 1011.8
20260509190022 27 204 0.0 1.6 0.00 0.00 0.00 56 1011.8
20260509185516 26 204 0.0 1.6 0.00 0.00 0.00 55 1011.8
20260509185015 26 204 0.0 0.0 0.00 0.00 0.00 56 1011.9
20260509184514 26 204 0.0 0.0 0.00 0.00 0.00 55 1012.0
20260509184013 27 204 0.0 4.8 0.00 0.00 0.00 59 1011.9
20260509183513 26 204 1.6 6.4 0.00 0.00 0.00 61 1012.0
20260509183020 26 291 0.0 4.8 0.00 0.00 0.00 58 1012.1
20260509182512 26 178 0.0 4.8 0.00 0.00 0.00 60 1012.1
20260509182011 26 148 0.0 1.6 0.00 0.00 0.00 59 1012.2
20260509181511 26 148 0.0 8.0 0.00 0.00 0.00 62 1012.1
20260509181010 26 147 4.8 8.0 0.00 0.00 0.00 60 1012.1
20260509180507 26 283 0.0 3.2 0.00 0.00 0.00 61 1012.2
20260509180006 26 284 0.0 4.8 0.00 0.00 0.00 61 1012.2
20260509175505 26 284 0.0 8.0 0.00 0.00 0.00 63 1012.2
20260509175006 25 284 1.6 8.0 0.00 0.00 0.00 64 1012.3
20260509174508 25 282 0.0 0.0 0.00 0.00 0.00 65 1012.3
20260509174004 25 282 0.0 0.0 0.00 0.00 0.00 63 1012.3
20260509173503 25 282 0.0 9.7 0.00 0.00 0.00 63 1012.3
20260509173002 25 282 3.2 9.7 0.00 0.00 0.00 66 1012.4
20260509172501 25 276 0.0 4.8 0.00 0.00 0.00 66 1012.3
20260509172001 25 271 0.0 4.8 0.00 0.00 0.00 68 1012.2
20260509171500 25 271 0.0 4.8 0.00 0.00 0.00 68 1012.3
20260509171100 25 271 0.0 4.8 0.00 0.00 0.00 67 1012.3
20260509170559 24 274 0.0 6.4 0.00 0.00 0.00 68 1012.2
20260509170058 24 278 0.0 4.8 0.00 0.00 0.00 69 1012.3
20260509165557 24 278 0.0 4.8 0.00 0.00 0.00 70 1012.3
20260509165056 24 287 0.0 3.2 0.00 0.00 0.00 70 1012.3
20260509164555 23 288 0.0 8.0 0.00 0.00 0.00 70 1012.2
20260509164053 23 289 0.0 8.0 0.00 0.00 0.00 70 1012.2
20260509163553 23 300 0.0 4.8 0.00 0.00 0.00 72 1012.3
20260509163059 23 300 1.6 4.8 0.00 0.00 0.00 72 1012.3
20260509162553 23 276 0.0 4.8 0.00 0.00 0.00 71 1012.3
20260509162050 23 281 1.6 4.8 0.00 0.00 0.00 73 1012.4
20260509161550 23 248 0.0 3.2 0.00 0.00 0.00 73 1012.4
20260509161049 22 222 0.0 4.8 0.00 0.00 0.00 73 1012.4
20260509160548 22 273 1.6 9.7 0.00 0.00 0.00 74 1012.3
20260509160051 22 269 0.0 11.3 0.00 0.00 0.00 73 1012.3
20260509155545 22 323 1.6 6.4 0.00 0.00 0.00 76 1012.3
20260509155048 22 263 1.6 6.4 0.00 0.00 0.00 75 1012.2
20260509154543 21 259 0.0 8.0 0.00 0.00 0.00 76 1012.2
20260509154041 21 282 1.6 9.7 0.00 0.00 0.00 77 1012.3
20260509153541 21 309 0.0 3.2 0.00 0.00 0.00 76 1012.3
20260509153041 21 309 0.0 3.2 0.00 0.00 0.00 77 1012.3
20260509152540 21 309 0.0 6.4 0.00 0.00 0.00 78 1012.2
20260509152040 21 309 0.0 6.4 0.00 0.00 0.00 77 1012.1
20260509151541 21 299 0.0 4.8 0.00 0.00 0.00 77 1012.2
20260509151038 21 264 1.6 4.8 0.00 0.00 0.00 78 1012.2
20260509150538 21 264 0.0 4.8 0.00 0.00 0.00 79 1012.2
20260509150038 20 264 0.0 3.2 0.00 0.00 0.00 81 1012.1
20260509145537 20 264 0.0 3.2 0.00 0.00 0.00 80 1012.1
20260509145037 20 264 0.0 3.2 0.00 0.00 0.00 81 1012.2
20260509144535 20 264 0.0 0.0 0.00 0.00 0.00 81 1012.1
20260509144033 20 264 0.0 3.2 0.00 0.00 0.00 83 1012.2
20260509143532 20 264 0.0 3.2 0.00 0.00 0.00 80 1012.3
20260509143032 20 279 0.0 3.2 0.00 0.00 0.00 80 1012.3
20260509142531 20 279 0.0 0.0 0.00 0.00 0.00 79 1012.4
20260509142030 20 279 0.0 4.8 0.00 0.00 0.00 79 1012.4
20260509141531 19 279 0.0 4.8 0.00 0.00 0.00 80 1012.4
20260509141029 19 234 0.0 3.2 0.00 0.00 0.00 81 1012.4
20260509140527 18 230 0.0 4.8 0.00 0.00 0.00 82 1012.4
20260509140025 18 230 0.0 4.8 0.00 0.00 0.00 84 1012.4
20260509135527 18 250 0.0 3.2 0.00 0.00 0.00 85 1012.6
20260509135023 18 250 0.0 3.2 0.00 0.00 0.00 86 1012.6
20260509134523 18 250 0.0 3.2 0.00 0.00 0.00 87 1012.4
20260509134023 17 250 0.0 0.0 0.00 0.00 0.00 89 1012.4
20260509133522 17 250 0.0 1.6 0.00 0.00 0.00 91 1012.4
20260509133022 17 250 0.0 1.6 0.00 0.00 0.00 91 1012.4
20260509132524 17 250 0.0 1.6 0.00 0.00 0.00 92 1012.4
20260509132022 16 250 0.0 1.6 0.00 0.00 0.00 92 1012.3
20260509131529 16 250 0.0 1.6 0.00 0.00 0.00 92 1012.4
20260509131021 16 250 0.0 0.0 0.00 0.00 0.00 93 1012.3
20260509130520 16 250 0.0 0.0 0.00 0.00 0.00 93 1012.4
20260509130022 16 250 0.0 0.0 0.00 0.00 0.00 93 1012.2
20260509125519 16 250 0.0 0.0 0.00 0.00 0.00 93 1012.2
20260509125019 16 250 0.0 0.0 0.00 0.00 0.00 93 1012.3
20260509124519 16 250 0.0 0.0 0.00 0.00 0.00 93 1012.3
20260509124019 15 250 0.0 0.0 0.00 0.00 0.00 94 1012.3
20260509123519 15 250 0.0 0.0 0.00 0.00 0.00 94 1012.3
20260509123018 15 251 0.0 1.6 0.00 0.00 0.00 94 1012.3
20260509122518 15 254 0.0 1.6 0.00 0.00 0.00 94 1012.3
20260509122021 15 254 0.0 0.0 0.00 0.00 0.00 94 1012.2
20260509121517 15 254 0.0 0.0 0.00 0.00 0.00 94 1012.1
20260509121020 15 254 0.0 0.0 0.00 0.00 0.00 94 1012.0
20260509120516 15 254 0.0 0.0 0.00 0.00 0.00 94 1011.9
20260509120116 15 254 0.0 0.0 0.00 0.00 0.00 94 1011.8
20260509115515 15 254 0.0 0.0 0.00 0.00 0.00 94 1011.6
20260509115015 15 254 0.0 0.0 0.00 0.00 0.00 94 1011.5
20260509114514 15 254 0.0 0.0 0.00 0.00 0.00 93 1011.5
20260509114014 15 254 0.0 0.0 0.00 0.00 0.00 93 1011.4
20260509113514 15 254 0.0 0.0 0.00 0.00 0.00 93 1011.4
20260509113014 15 254 0.0 0.0 0.00 0.00 0.00 93 1011.3
20260509112513 15 254 0.0 0.0 0.00 0.00 0.00 92 1011.3
20260509112012 15 254 0.0 0.0 0.00 0.00 0.00 92 1011.2
20260509111512 15 254 0.0 0.0 0.00 0.00 0.00 92 1011.3
20260509111012 15 254 0.0 0.0 0.00 0.00 0.00 92 1011.1
20260509110511 15 254 0.0 0.0 0.00 0.00 0.00 92 1011.0
20260509110011 15 254 0.0 0.0 0.00 0.00 0.00 92 1010.9
20260509105510 15 254 0.0 0.0 0.00 0.00 0.00 91 1010.8
20260509105010 15 254 0.0 0.0 0.00 0.00 0.00 91 1010.8
20260509104509 15 254 0.0 0.0 0.00 0.00 0.00 91 1010.7
20260509104008 15 254 0.0 0.0 0.00 0.00 0.00 91 1010.7
20260509103508 15 254 0.0 0.0 0.00 0.00 0.00 91 1010.7
20260509103008 15 254 0.0 0.0 0.00 0.00 0.00 91 1010.7
20260509102509 15 254 0.0 0.0 0.00 0.00 0.00 91 1010.6
20260509102009 15 254 0.0 0.0 0.00 0.00 0.00 90 1010.7
20260509101508 15 254 0.0 0.0 0.00 0.00 0.00 90 1010.7
20260509101008 15 254 0.0 0.0 0.00 0.00 0.00 90 1010.7
20260509100507 15 254 0.0 0.0 0.00 0.00 0.00 89 1010.7
20260509100009 15 254 0.0 0.0 0.00 0.00 0.00 89 1010.7
20260509095507 16 254 0.0 0.0 0.00 0.00 0.00 89 1010.5
20260509095006 16 254 0.0 0.0 0.00 0.00 0.00 90 1010.4
20260509094507 15 254 0.0 0.0 0.00 0.00 0.00 90 1010.4
20260509094005 15 254 0.0 0.0 0.00 0.00 0.00 90 1010.5
20260509093508 15 254 0.0 0.0 0.00 0.00 0.00 89 1010.6
20260509093004 15 254 0.0 0.0 0.00 0.00 0.00 88 1010.8
20260509092503 16 254 0.0 0.0 0.00 0.00 0.00 87 1010.9
20260509092003 16 254 0.0 0.0 0.00 0.00 0.00 87 1011.0
20260509091501 16 254 0.0 0.0 0.00 0.00 0.00 86 1010.9
20260509091100 16 254 0.0 0.0 0.00 0.00 0.00 86 1011.0
20260509090659 16 254 0.0 0.0 0.00 0.00 0.00 85 1011.0
20260509090058 16 254 0.0 0.0 0.00 0.00 0.00 84 1010.9
20260509085559 16 254 0.0 1.6 0.00 0.00 0.00 84 1010.9
20260509085057 17 254 0.0 1.6 0.00 0.00 0.00 84 1010.8
20260509084601 17 254 0.0 3.2 0.00 0.00 0.00 84 1010.6
20260509084056 17 254 0.0 4.8 0.00 0.00 0.00 83 1010.5
20260509083557 17 286 0.0 6.4 0.00 0.00 0.00 83 1010.5
20260509083057 17 298 0.0 6.4 0.00 0.00 0.00 83 1010.4
20260509082554 17 261 3.2 6.4 0.00 0.00 0.00 83 1010.4
20260509082058 17 290 0.0 6.4 0.00 0.00 0.00 83 1010.4
20260509081557 17 280 0.0 6.4 0.00 0.00 0.00 83 1010.5
20260509081053 17 282 1.6 6.4 0.00 0.00 0.00 84 1010.5
20260509080554 17 293 0.0 3.2 0.00 0.00 0.00 83 1010.8
20260509080131 17 293 0.0 3.2 0.00 0.00 0.00 83 1010.8
20260509075551 17 293 0.0 3.2 0.00 0.00 0.00 82 1010.8
20260509075051 17 34 0.0 3.2 0.00 0.00 0.00 82 1010.9
20260509074551 17 33 0.0 6.4 0.00 0.00 0.00 82 1010.9
20260509074050 17 213 0.0 6.4 0.00 0.00 0.00 82 1010.8
20260509073549 17 185 1.6 6.4 0.00 0.00 0.00 82 1010.7
20260509073146 17 225 1.6 6.4 0.00 0.00 0.00 81 1010.6
20260509072549 17 188 3.2 8.0 0.00 0.00 0.00 82 1010.7
20260509072048 17 229 3.2 8.0 0.00 0.00 0.00 81 1010.6
20260509071550 17 215 3.2 6.4 0.00 0.00 0.00 81 1010.6
20260509071047 17 216 1.6 6.4 0.00 0.00 0.00 81 1010.5
20260509070547 17 227 3.2 9.7 0.00 0.00 0.00 81 1010.5
20260509070046 17 185 3.2 9.7 0.00 0.00 0.00 80 1010.5
20260509065545 17 190 3.2 9.7 0.00 0.00 0.00 80 1010.6
20260509065148 18 190 3.2 9.7 0.00 0.00 0.00 80 1010.6
20260509064547 18 192 4.8 9.7 0.00 0.00 0.00 79 1010.5
20260509064044 18 167 4.8 11.3 0.00 0.00 0.00 79 1010.6
20260509063543 18 181 3.2 11.3 0.00 0.00 0.00 78 1010.6
20260509063042 18 161 4.8 11.3 0.00 0.00 0.00 78 1010.4
20260509062543 18 189 3.2 14.5 0.00 0.00 0.00 78 1010.5
20260509062043 18 188 3.2 14.5 0.00 0.00 0.00 77 1010.4
20260509061551 18 186 3.2 8.0 0.00 0.00 0.00 77 1010.4